GW0718 Weather Reports


Display with metric or nautical units.
time (UTC)temp
F
wind
direction
speed
MPH
gust
MPH
rain 1hr
in
rain 24hr
in
rain mn
in
humidity
%
barometer
mb
20260904234339 69 311 12.0 19.0 0.00 0.00 0.00 37 1013.1
20260904233835 67 324 6.0 17.0 0.00 0.00 0.00 39 1013.6
20260904233330 67 334 15.0 20.0 0.00 0.00 0.00 39 1013.2
20260904232826 68 323 13.0 17.0 0.00 0.00 0.00 38 1013.3
20260904232322 68 334 11.0 22.0 0.00 0.00 0.00 38 1013.3
20260904231818 68 309 7.0 20.0 0.00 0.00 0.00 38 1013.1
20260904231313 67 316 10.0 19.0 0.00 0.00 0.00 39 1013.2
20260904230808 69 354 8.0 18.0 0.00 0.00 0.00 38 1013.3
20260904230306 68 323 13.0 19.0 0.00 0.00 0.00 38 1013.0
20260904225801 67 300 11.0 20.0 0.00 0.00 0.00 38 1013.1
20260904225255 67 312 11.0 24.0 0.00 0.00 0.00 38 1012.9
20260904224754 68 326 10.0 23.0 0.00 0.00 0.00 38 1012.9
20260904224250 68 308 16.0 23.0 0.00 0.00 0.00 37 1012.7
20260904223749 68 288 14.0 23.0 0.00 0.00 0.00 37 1012.3
20260904223239 70 320 15.0 20.0 0.00 0.00 0.00 36 1012.6
20260904222734 71 320 14.0 23.0 0.00 0.00 0.00 35 1012.5
20260904222224 70 327 21.0 28.0 0.00 0.00 0.00 35 1012.6
20260904221723 70 317 5.0 24.0 0.00 0.00 0.00 36 1012.5
20260904221218 71 321 10.0 27.0 0.00 0.00 0.00 35 1012.5
20260904220713 71 285 20.0 25.0 0.00 0.00 0.00 36 1012.2
20260904220208 70 310 15.0 29.0 0.00 0.00 0.00 36 1012.3
20260904215708 71 296 12.0 21.0 0.00 0.00 0.00 35 1012.0
20260904215204 70 339 13.0 27.0 0.00 0.00 0.00 36 1012.0
20260904214658 70 291 17.0 29.0 0.00 0.00 0.00 36 1012.0
20260904214154 70 334 16.0 32.0 0.00 0.00 0.00 36 1011.9
20260904213652 70 312 11.0 24.0 0.00 0.00 0.00 36 1011.7
20260904213149 70 287 15.0 32.0 0.00 0.00 0.00 37 1011.4
20260904212644 70 316 12.0 25.0 0.00 0.00 0.00 37 1011.5
20260904212144 71 258 20.0 23.0 0.00 0.00 0.00 37 1011.7
20260904211638 71 332 18.0 26.0 0.00 0.00 0.00 37 1011.1
20260904211133 69 313 17.0 26.0 0.00 0.00 0.00 39 1011.5
20260904210627 68 282 8.0 22.0 0.00 0.00 0.00 40 1011.8
20260904210117 68 288 19.0 25.0 0.00 0.00 0.00 40 1011.4
20260904205613 67 273 10.0 24.0 0.00 0.00 0.00 41 1011.2
20260904205109 66 316 14.0 26.0 0.00 0.00 0.00 41 1011.4
20260904204605 65 302 12.0 25.0 0.00 0.00 0.00 42 1011.2
20260904204101 65 310 9.0 25.0 0.00 0.00 0.00 43 1011.6
20260904203556 66 282 13.0 27.0 0.00 0.00 0.00 42 1011.7
20260904203053 66 323 15.0 25.0 0.00 0.00 0.00 42 1011.4
20260904202548 67 293 16.0 25.0 0.00 0.00 0.00 42 1011.1
20260904202044 66 279 20.0 26.0 0.00 0.00 0.00 42 1011.1
20260904201539 66 311 18.0 26.0 0.00 0.00 0.00 43 1011.0
20260904201034 65 309 13.0 29.0 0.00 0.00 0.00 44 1010.9
20260904200533 65 285 14.0 27.0 0.00 0.00 0.00 44 1011.0
20260904200028 65 299 13.0 28.0 0.00 0.00 0.00 44 1010.8
20260904195527 66 314 11.0 27.0 0.00 0.00 0.00 43 1010.7
20260904195026 66 342 5.0 22.0 0.00 0.00 0.00 43 1010.6
20260904194521 65 296 19.0 23.0 0.00 0.00 0.00 44 1010.6
20260904194016 64 306 15.0 28.0 0.00 0.00 0.00 45 1010.2
20260904193516 66 321 15.0 25.0 0.00 0.00 0.00 44 1010.5
20260904193012 65 307 17.0 23.0 0.00 0.00 0.00 46 1010.4
20260904192511 66 292 12.0 23.0 0.00 0.00 0.00 45 1010.5
20260904192008 66 312 16.0 22.0 0.00 0.00 0.00 45 1010.2
20260904191504 66 294 14.0 25.0 0.00 0.00 0.00 45 1010.1
20260904191000 66 319 20.0 23.0 0.00 0.00 0.00 45 1010.1
20260904190455 66 297 13.0 24.0 0.00 0.00 0.00 45 1010.1
20260904185951 65 303 7.0 21.0 0.00 0.00 0.00 46 1010.0
20260904185447 66 288 7.0 21.0 0.00 0.00 0.00 45 1009.9
20260904184942 64 311 16.0 24.0 0.00 0.00 0.00 47 1009.9
20260904184436 64 282 18.0 21.0 0.00 0.00 0.00 48 1010.0
20260904183932 63 297 16.0 23.0 0.00 0.00 0.00 48 1009.6
20260904183427 63 310 17.0 17.0 0.00 0.00 0.00 48 1009.8
20260904182922 63 340 10.0 18.0 0.00 0.00 0.00 48 1009.8
20260904182418 63 297 12.0 18.0 0.00 0.00 0.00 49 1009.8
20260904181912 63 296 13.0 21.0 0.00 0.00 0.00 49 1009.8
20260904181408 62 303 12.0 19.0 0.00 0.00 0.00 50 1010.0
20260904180903 62 295 15.0 21.0 0.00 0.00 0.00 50 1009.9
20260904180358 62 319 13.0 21.0 0.00 0.00 0.00 50 1009.5
20260904175857 62 303 11.0 19.0 0.00 0.00 0.00 50 1009.6
20260904175356 63 316 11.0 22.0 0.00 0.00 0.00 49 1009.8
20260904174850 63 307 12.0 25.0 0.00 0.00 0.00 49 1009.9
20260904174347 62 321 9.0 18.0 0.00 0.00 0.00 50 1009.7
20260904173843 62 321 16.0 19.0 0.00 0.00 0.00 50 1009.4
20260904173338 62 323 14.0 21.0 0.00 0.00 0.00 51 1009.4
20260904172834 64 327 13.0 16.0 0.00 0.00 0.00 48 1009.5
20260904172333 62 312 13.0 20.0 0.00 0.00 0.00 50 1009.3
20260904171828 63 326 16.0 21.0 0.00 0.00 0.00 50 1009.3
20260904171323 63 331 12.0 18.0 0.00 0.00 0.00 50 1009.5
20260904170819 64 317 4.0 16.0 0.00 0.00 0.00 49 1009.3
20260904170314 66 352 7.0 9.0 0.00 0.00 0.00 46 1009.1
20260904165808 65 35 3.0 12.0 0.00 0.00 0.00 46 1008.9
20260904165305 65 3 11.0 13.0 0.00 0.00 0.00 48 1009.1
20260904164756 67 29 5.0 11.0 0.00 0.00 0.00 44 1008.8
20260904164252 66 356 3.0 8.0 0.00 0.00 0.00 43 1009.0
20260904163748 66 15 5.0 7.0 0.00 0.00 0.00 43 1008.9
20260904163243 65 36 2.0 6.0 0.00 0.00 0.00 44 1008.8
20260904162742 65 25 3.0 7.0 0.00 0.00 0.00 45 1008.9
20260904162237 65 355 5.0 6.0 0.00 0.00 0.00 45 1009.0
20260904161733 64 343 2.0 6.0 0.00 0.00 0.00 45 1008.9
20260904161232 64 328 2.0 4.0 0.00 0.00 0.00 45 1009.0
20260904160727 64 303 3.0 3.0 0.00 0.00 0.00 45 1008.9
20260904160223 65 75 1.0 2.0 0.00 0.00 0.00 45 1008.8
20260904155718 64 46 2.0 2.0 0.00 0.00 0.00 46 1008.6
20260904155217 63 52 4.0 5.0 0.00 0.00 0.00 47 1008.4
20260904154716 63 74 7.0 7.0 0.00 0.00 0.00 47 1008.0
20260904154211 63 89 7.0 8.0 0.00 0.00 0.00 47 1008.0
20260904153706 62 73 6.0 9.0 0.00 0.00 0.00 47 1007.8
20260904153201 61 62 5.0 7.0 0.00 0.00 0.00 50 1007.7
20260904152658 61 53 5.0 6.0 0.00 0.00 0.00 48 1007.8
20260904152153 61 65 5.0 8.0 0.00 0.00 0.00 49 1007.8
20260904151648 61 49 7.0 9.0 0.00 0.00 0.00 48 1008.0
20260904151146 61 44 7.0 7.0 0.00 0.00 0.00 48 1007.9
20260904150643 61 51 5.0 7.0 0.00 0.00 0.00 50 1007.9
20260904150138 61 55 4.0 6.0 0.00 0.00 0.00 49 1008.0
20260904145636 61 42 8.0 10.0 0.00 0.00 0.00 51 1008.0
20260904145131 62 79 2.0 5.0 0.00 0.00 0.00 49 1007.9
20260904144627 61 55 6.0 7.0 0.00 0.00 0.00 49 1007.9
20260904144123 62 43 4.0 6.0 0.00 0.00 0.00 48 1008.0
20260904143619 62 88 4.0 5.0 0.00 0.00 0.00 49 1007.8
20260904143115 60 37 2.0 2.0 0.00 0.00 0.00 52 1007.9
20260904142611 59 334 2.0 5.0 0.00 0.00 0.00 54 1008.1
20260904142106 58 264 4.0 5.0 0.00 0.00 0.00 54 1008.1
20260904141601 58 51 7.0 9.0 0.00 0.00 0.00 54 1008.0
20260904141056 58 62 4.0 9.0 0.00 0.00 0.00 57 1007.7
20260904140551 57 24 3.0 4.0 0.00 0.00 0.00 55 1007.9
20260904140045 57 352 2.0 4.0 0.00 0.00 0.00 57 1007.9
20260904135544 56 285 4.0 5.0 0.00 0.00 0.00 58 1008.3
20260904135035 55 51 4.0 6.0 0.00 0.00 0.00 59 1007.7
20260904134530 54 42 2.0 2.0 0.00 0.00 0.00 61 1008.0
20260904134024 54 278 1.0 3.0 0.00 0.00 0.00 62 1008.1
20260904133520 54 285 1.0 3.0 0.00 0.00 0.00 60 1008.0
20260904133016 53 246 1.0 3.0 0.00 0.00 0.00 63 1008.1
20260904132515 53 285 1.0 3.0 0.00 0.00 0.00 62 1008.0
20260904132010 53 297 2.0 3.0 0.00 0.00 0.00 62 1008.0
20260904131505 51 320 2.0 3.0 0.00 0.00 0.00 64 1007.9
20260904131001 51 304 2.0 3.0 0.00 0.00 0.00 66 1007.9
20260904130500 50 298 4.0 5.0 0.00 0.00 0.00 66 1007.8
20260904125954 51 320 2.0 5.0 0.00 0.00 0.00 66 1008.0
20260904125450 51 293 4.0 5.0 0.00 0.00 0.00 65 1007.6
20260904124949 51 300 3.0 4.0 0.00 0.00 0.00 64 1007.6
20260904124446 52 332 2.0 5.0 0.00 0.00 0.00 63 1007.6
20260904123942 53 343 3.0 4.0 0.00 0.00 0.00 62 1007.7
20260904123436 53 346 4.0 5.0 0.00 0.00 0.00 60 1007.7
20260904122931 53 351 3.0 4.0 0.00 0.00 0.00 60 1007.9
20260904122425 53 325 4.0 5.0 0.00 0.00 0.00 60 1007.8
20260904121920 53 327 3.0 5.0 0.00 0.00 0.00 59 1007.9
20260904121417 54 325 4.0 5.0 0.00 0.00 0.00 57 1007.6
20260904120913 54 328 3.0 4.0 0.00 0.00 0.00 57 1007.9
20260904120408 52 310 3.0 3.0 0.00 0.00 0.00 60 1008.0
20260904115903 54 283 3.0 3.0 0.00 0.00 0.00 57 1008.0
20260904115358 55 313 3.0 3.0 0.00 0.00 0.00 56 1007.7
20260904114853 55 306 2.0 3.0 0.00 0.00 0.00 56 1008.1
20260904114348 55 279 3.0 4.0 0.00 0.00 0.00 56 1007.8
20260904113843 55 8 3.0 5.0 0.00 0.00 0.00 55 1007.9
20260904113343 56 355 2.0 3.0 0.00 0.00 0.00 54 1007.8
20260904112837 56 24 5.0 6.0 0.00 0.00 0.00 54 1007.7
20260904112333 57 44 3.0 5.0 0.00 0.00 0.00 53 1007.8
20260904111828 57 58 2.0 3.0 0.00 0.00 0.00 53 1008.0
20260904111324 57 32 2.0 5.0 0.00 0.00 0.00 53 1008.0
20260904110820 57 46 6.0 6.0 0.00 0.00 0.00 53 1007.8
20260904110319 57 47 3.0 3.0 0.00 0.00 0.00 52 1007.7
20260904105813 57 30 1.0 3.0 0.00 0.00 0.00 53 1008.0
20260904105308 57 322 0.0 2.0 0.00 0.00 0.00 53 1007.9
20260904104803 56 242 0.0 2.0 0.00 0.00 0.00 55 1007.8
20260904104259 55 257 0.0 4.0 0.00 0.00 0.00 56 1008.0
20260904103756 55 260 3.0 4.0 0.00 0.00 0.00 55 1008.5
20260904103255 53 272 4.0 4.0 0.00 0.00 0.00 58 1008.4
20260904102750 54 273 3.0 4.0 0.00 0.00 0.00 57 1008.4
20260904102246 53 261 4.0 4.0 0.00 0.00 0.00 58 1008.1
20260904101742 56 251 2.0 4.0 0.00 0.00 0.00 54 1008.4
20260904101238 56 243 3.0 4.0 0.00 0.00 0.00 54 1008.8
20260904100734 56 230 2.0 2.0 0.00 0.00 0.00 54 1008.6
20260904100230 55 237 0.0 2.0 0.00 0.00 0.00 54 1008.6
20260904095729 54 251 2.0 2.0 0.00 0.00 0.00 56 1008.4
20260904095224 55 224 0.0 4.0 0.00 0.00 0.00 54 1008.8
20260904094719 56 221 0.0 1.0 0.00 0.00 0.00 53 1008.6
20260904094219 57 148 0.0 3.0 0.00 0.00 0.00 52 1008.9
20260904093716 56 267 2.0 3.0 0.00 0.00 0.00 53 1008.7
20260904093215 55 267 2.0 3.0 0.00 0.00 0.00 54 1008.9
20260904092711 55 259 2.0 4.0 0.00 0.00 0.00 55 1008.8
20260904092207 55 246 2.0 4.0 0.00 0.00 0.00 55 1008.9
20260904091703 54 250 3.0 3.0 0.00 0.00 0.00 56 1009.0
20260904091158 55 221 1.0 2.0 0.00 0.00 0.00 56 1009.1
20260904090653 55 258 2.0 2.0 0.00 0.00 0.00 55 1008.9
20260904090149 56 242 2.0 3.0 0.00 0.00 0.00 54 1009.1
20260904085644 56 243 2.0 3.0 0.00 0.00 0.00 54 1009.0
20260904085143 56 190 0.0 2.0 0.00 0.00 0.00 54 1009.3
20260904084638 57 324 1.0 3.0 0.00 0.00 0.00 52 1009.3
20260904084135 58 295 1.0 2.0 0.00 0.00 0.00 51 1009.1
20260904083631 56 306 2.0 3.0 0.00 0.00 0.00 53 1009.1
20260904083127 57 314 2.0 3.0 0.00 0.00 0.00 52 1009.3
20260904082621 58 39 1.0 2.0 0.00 0.00 0.00 51 1008.9
20260904082117 58 17 1.0 2.0 0.00 0.00 0.00 51 1009.3
20260904081612 58 344 3.0 3.0 0.00 0.00 0.00 50 1009.4
20260904081107 58 11 2.0 3.0 0.00 0.00 0.00 50 1009.5
20260904080603 58 307 1.0 2.0 0.00 0.00 0.00 51 1009.3
20260904080059 58 346 1.0 3.0 0.00 0.00 0.00 50 1009.1
20260904075555 55 298 2.0 4.0 0.00 0.00 0.00 54 1009.6
20260904075050 58 276 2.0 2.0 0.00 0.00 0.00 51 1009.4
20260904074549 58 294 2.0 3.0 0.00 0.00 0.00 50 1009.5
20260904074044 58 317 2.0 3.0 0.00 0.00 0.00 50 1009.7
20260904073539 58 288 2.0 4.0 0.00 0.00 0.00 51 1009.4
20260904073035 57 305 2.0 3.0 0.00 0.00 0.00 52 1009.4
20260904072531 59 294 2.0 3.0 0.00 0.00 0.00 51 1009.5
20260904072026 59 337 2.0 3.0 0.00 0.00 0.00 50 1009.4
20260904071522 58 314 3.0 3.0 0.00 0.00 0.00 52 1009.4
20260904071016 58 289 2.0 4.0 0.00 0.00 0.00 52 1009.5
20260904070515 59 309 2.0 3.0 0.00 0.00 0.00 51 1009.7
20260904070009 59 302 2.0 3.0 0.00 0.00 0.00 50 1009.6
20260904065504 57 289 2.0 2.0 0.00 0.00 0.00 53 1009.6
20260904065000 58 278 2.0 2.0 0.00 0.00 0.00 52 1009.7
20260904064456 58 247 2.0 3.0 0.00 0.00 0.00 51 1009.5
20260904063951 58 268 3.0 4.0 0.00 0.00 0.00 52 1009.4
20260904063448 58 272 4.0 6.0 0.00 0.00 0.00 52 1009.4
20260904062943 57 256 4.0 5.0 0.00 0.00 0.00 53 1009.5
20260904062439 57 265 5.0 6.0 0.00 0.00 0.00 54 1009.6
20260904061934 56 288 4.0 4.0 0.00 0.00 0.00 56 1009.7
20260904061431 55 268 3.0 5.0 0.00 0.00 0.00 58 1009.7
20260904060926 56 273 3.0 5.0 0.00 0.00 0.00 56 1009.5
20260904060422 56 260 4.0 5.0 0.00 0.00 0.00 56 1009.7
20260904055917 58 267 3.0 5.0 0.00 0.00 0.00 53 1009.7
20260904055413 58 258 4.0 6.0 0.00 0.00 0.00 52 1009.7
20260904054908 58 252 4.0 6.0 0.00 0.00 0.00 52 1010.0
20260904054404 57 236 2.0 4.0 0.00 0.00 0.00 54 1009.8
20260904053900 58 214 2.0 4.0 0.00 0.00 0.00 53 1009.9
20260904053358 59 208 2.0 3.0 0.00 0.00 0.00 51 1009.8
20260904052854 59 202 2.0 4.0 0.00 0.00 0.00 50 1010.1
20260904052350 58 218 2.0 5.0 0.00 0.00 0.00 53 1010.4
20260904051846 59 189 2.0 3.0 0.00 0.00 0.00 51 1010.1
20260904051342 60 183 2.0 3.0 0.00 0.00 0.00 49 1010.5
20260904050836 59 253 4.0 6.0 0.00 0.00 0.00 50 1009.9
20260904050333 59 261 4.0 5.0 0.00 0.00 0.00 52 1010.0
20260904045833 59 247 4.0 6.0 0.00 0.00 0.00 51 1009.9
20260904045328 58 239 2.0 4.0 0.00 0.00 0.00 54 1010.0
20260904044822 57 235 3.0 4.0 0.00 0.00 0.00 55 1009.9
20260904044319 56 255 3.0 4.0 0.00 0.00 0.00 56 1009.9
20260904043815 57 266 4.0 5.0 0.00 0.00 0.00 55 1010.0
20260904043311 56 243 4.0 5.0 0.00 0.00 0.00 56 1010.0
20260904042806 56 281 4.0 5.0 0.00 0.00 0.00 57 1010.0
20260904042306 55 269 4.0 5.0 0.00 0.00 0.00 58 1009.8
20260904041802 54 280 4.0 6.0 0.00 0.00 0.00 60 1009.6
20260904041259 53 294 6.0 10.0 0.00 0.00 0.00 60 1009.7
20260904040753 53 287 8.0 12.0 0.00 0.00 0.00 61 1009.7
20260904040249 53 298 10.0 13.0 0.00 0.00 0.00 60 1009.6
20260904035745 54 293 7.0 10.0 0.00 0.00 0.00 58 1009.8
20260904035241 54 309 4.0 8.0 0.00 0.00 0.00 58 1010.0
20260904034739 55 350 3.0 5.0 0.00 0.00 0.00 56 1010.1
20260904034236 56 343 2.0 4.0 0.00 0.00 0.00 55 1009.9
20260904033731 56 317 1.0 4.0 0.00 0.00 0.00 55 1010.1
20260904033228 56 277 3.0 5.0 0.00 0.00 0.00 54 1010.1
20260904032723 57 299 4.0 6.0 0.00 0.00 0.00 53 1010.0
20260904032222 57 296 6.0 8.0 0.00 0.00 0.00 53 1010.0
20260904031717 57 292 5.0 8.0 0.00 0.00 0.00 53 1009.9
20260904031213 56 296 8.0 11.0 0.00 0.00 0.00 54 1009.9
20260904030708 57 296 6.0 12.0 0.00 0.00 0.00 54 1009.9
20260904030203 57 294 8.0 11.0 0.00 0.00 0.00 53 1010.0
20260904025700 56 285 4.0 7.0 0.00 0.00 0.00 54 1009.9
20260904025154 57 298 5.0 6.0 0.00 0.00 0.00 52 1009.9
20260904024644 58 294 5.0 9.0 0.00 0.00 0.00 51 1009.6
20260904024140 58 304 8.0 11.0 0.00 0.00 0.00 50 1009.5
20260904023635 58 290 9.0 12.0 0.00 0.00 0.00 50 1009.4
20260904023131 57 301 9.0 9.0 0.00 0.00 0.00 51 1009.5
20260904022631 58 300 8.0 10.0 0.00 0.00 0.00 50 1009.3
20260904022128 57 290 6.0 6.0 0.00 0.00 0.00 52 1009.6
20260904021624 58 286 4.0 7.0 0.00 0.00 0.00 50 1009.3
20260904021118 59 293 4.0 10.0 0.00 0.00 0.00 49 1009.6
20260904020614 60 324 7.0 9.0 0.00 0.00 0.00 47 1009.4
20260904020109 62 301 4.0 9.0 0.00 0.00 0.00 45 1009.3
20260904015603 61 330 6.0 8.0 0.00 0.00 0.00 46 1009.3
20260904015101 62 337 4.0 6.0 0.00 0.00 0.00 45 1009.5
20260904014555 63 325 6.0 6.0 0.00 0.00 0.00 44 1009.4
20260904014051 64 302 6.0 6.0 0.00 0.00 0.00 43 1009.4
20260904013548 64 333 6.0 7.0 0.00 0.00 0.00 42 1009.4
20260904013044 65 330 5.0 8.0 0.00 0.00 0.00 41 1009.4
20260904012538 66 323 2.0 11.0 0.00 0.00 0.00 40 1009.7
20260904012037 67 304 11.0 13.0 0.00 0.00 0.00 39 1009.4
20260904011532 68 290 9.0 16.0 0.00 0.00 0.00 39 1009.3
20260904011027 68 308 6.0 17.0 0.00 0.00 0.00 38 1009.0
20260904010524 69 309 11.0 17.0 0.00 0.00 0.00 37 1009.0
20260904010020 69 281 10.0 15.0 0.00 0.00 0.00 37 1009.1
20260904005519 69 294 7.0 19.0 0.00 0.00 0.00 37 1009.1
20260904005015 69 283 11.0 19.0 0.00 0.00 0.00 36 1008.8
20260904004511 69 280 15.0 17.0 0.00 0.00 0.00 36 1008.9
20260904004010 69 300 15.0 21.0 0.00 0.00 0.00 36 1009.1
20260904003506 69 272 9.0 18.0 0.00 0.00 0.00 36 1009.0
20260904003001 70 273 15.0 18.0 0.00 0.00 0.00 35 1008.9
20260904002458 70 280 11.0 21.0 0.00 0.00 0.00 35 1008.9
20260904001956 70 259 16.0 21.0 0.00 0.00 0.00 35 1008.8
20260904001453 71 277 16.0 19.0 0.00 0.00 0.00 35 1009.0
20260904000946 71 290 11.0 17.0 0.00 0.00 0.00 36 1008.8
20260904000440 71 309 12.0 18.0 0.00 0.00 0.00 36 1008.8
20260903235936 71 284 10.0 19.0 0.00 0.00 0.00 36 1008.6
20260903235432 71 273 11.0 22.0 0.00 0.00 0.00 36 1008.6
20260903234926 71 275 12.0 19.0 0.00 0.00 0.00 37 1008.5